Location: Napier
(39.4830°S, 176.9170°E)
Time: 02:02:49
(UTC+13:00)

Cosmos 2322 Rocket - Pass Details

Date: 24 January 2019
Orbit: 834 x 849 km, 71.0° (Epoch: 22 February)

Event Time Altitude Azimuth Distance (km) Brightness Sun altitude
Rises 21:13:00 0° 359° (N) 3,381 5.0 -7.1°
Reaches altitude 10° 21:15:33 10° 6° (N) 2,457 4.3 -7.5°
Maximum altitude 21:20:48 41° 75° (ENE) 1,212 2.6 -8.3°
Drops below altitude 10° 21:26:08 10° 143° (SE) 2,496 4.6 -9.2°
Sets 21:28:43 0° 149° (SSE) 3,441 5.4 -9.6°
